GFSMA_850_spd_000.txt.gz
Wind_Speed
3 5 7 7 8 9 13 15 17 21 25 24 23 26 24 23 22 21 20 21 18 16 16 18 21 19 19 21 23 22 20 20 20 22 22 24 26 25 26 28 26 26 26
7 5 8 8 9 11 13 15 20 23 25 25 25 22 24 27 28 26 24 25 25 24 20 17 16 19 21 23 24 25 24 23 22 21 22 24 26 28 28 29 26 26 27
7 9 8 10 13 16 17 20 22 25 25 24 25 23 21 19 21 23 25 28 27 27 26 23 20 18 18 21 25 27 27 25 24 24 23 23 24 29 29 30 28 26 29
11 9 13 19 23 29 28 28 28 28 25 25 26 25 23 23 21 22 25 28 27 29 31 29 28 24 22 22 20 26 27 26 24 23 23 23 25 27 31 30 31 30 31
13 17 19 29 33 30 30 26 28 26 26 26 27 27 27 22 19 19 22 24 25 22 26 31 35 35 30 25 21 20 25 28 27 24 22 22 23 27 29 30 31 32 36
16 20 26 32 26 19 21 26 22 24 27 31 31 31 29 28 27 26 26 26 25 20 21 23 24 31 39 34 27 24 23 26 29 28 26 24 23 24 28 30 29 27 30
19 26 28 25 20 17 17 19 24 28 29 31 33 37 39 37 31 28 31 31 30 20 15 16 18 20 24 35 37 30 29 28 30 28 30 28 26 24 25 28 29 27 28
26 23 19 17 14 15 17 20 22 26 27 30 34 38 30 38 33 23 27 30 29 29 23 15 13 17 20 24 32 35 33 33 32 31 31 31 27 24 23 25 26 26 27
18 17 15 14 16 18 21 22 24 26 31 32 33 27 24 21 29 27 25 28 28 30 34 34 27 18 18 26 28 29 32 33 35 34 34 30 27 24 23 23 23 24 24
16 15 19 22 24 24 24 26 28 30 29 29 26 22 22 25 18 25 23 34 38 39 38 31 29 27 26 25 25 32 39 37 34 32 30 30 27 26 23 22 22 22 23
14 20 26 26 24 23 24 26 26 22 22 21 23 22 25 24 23 28 34 33 36 32 32 31 29 26 20 17 21 26 30 37 27 26 25 26 24 24 23 21 21 20 19
23 26 26 23 20 21 29 27 24 20 18 16 17 20 21 21 28 29 30 39 39 36 31 29 20 17 13 13 13 17 25 27 33 38 27 18 18 22 23 23 21 19 18
20 19 20 17 21 26 30 25 24 26 27 28 26 25 27 28 28 29 28 32 30 32 32 28 17 15 11 9 11 15 17 23 29 28 28 20 12 14 18 20 18 21 19
21 18 16 21 26 26 24 25 23 19 19 20 21 20 21 21 21 22 24 25 25 25 31 31 24 14 10 10 11 12 15 19 24 29 29 19 18 20 16 17 17 20 21
20 16 19 24 27 25 23 23 21 21 21 20 21 23 22 21 21 21 23 27 25 20 25 21 17 13 9 12 10 13 10 11 16 23 26 33 35 39 40 27 21 21 21
19 18 25 26 23 21 21 19 21 20 22 24 26 24 25 24 22 23 26 28 27 27 21 24 22 15 12 13 12 12 16 15 16 15 16 26 17 10 12 17 23 21 19
24 25 23 25 19 18 17 18 21 22 24 26 22 18 20 25 30 33 34 30 26 24 27 28 20 16 17 13 13 10 9 16 16 13 21 21 15 12 13 18 18 17 17
22 17 21 22 19 17 20 21 24 26 26 25 25 27 31 34 37 32 30 30 28 25 23 23 16 15 16 16 13 11 10 7 14 14 8 21 25 15 13 15 13 12 13
13 16 15 15 16 21 21 23 24 24 22 23 27 29 31 34 38 38 35 32 31 26 22 22 22 22 21 18 17 15 11 9 8 14 10 7 14 16 14 16 16 16 16
17 11 15 15 20 20 22 24 24 23 24 25 28 35 34 31 31 28 24 23 23 25 25 25 26 21 23 25 21 21 23 16 8 3 11 14 15 18 24 19 17 15 14
7 5 14 19 18 21 22 23 24 23 27 34 33 27 29 28 28 17 17 17 17 17 16 17 19 18 20 22 23 24 24 24 17 11 5 11 12 12 14 16 17 18 20
4 9 19 18 20 20 23 20 24 30 31 30 30 28 26 28 23 20 21 24 21 20 17 15 17 18 19 19 20 21 23 23 25 21 20 14 8 6 6 10 13 16 22
17 14 17 20 18 19 20 26 29 30 30 29 28 27 26 26 23 21 21 19 20 19 19 20 22 20 20 20 20 20 19 20 21 23 25 29 24 20 15 11 11 15 17
13 17 17 18 17 21 25 28 28 28 28 28 27 27 28 29 22 20 18 19 18 17 18 18 18 20 21 21 22 23 22 20 21 20 18 27 31 30 28 26 25 24 24
13 15 16 16 19 24 28 30 28 27 26 25 27 28 23 20 16 16 17 17 17 16 15 15 16 17 18 17 15 16 18 19 22 24 20 20 24 26 26 26 24 25 25
16 16 14 16 20 25 28 27 26 27 26 27 25 22 19 17 17 18 18 18 23 23 19 21 22 22 21 21 19 20 18 18 18 20 17 12 16 15 20 26 24 19 18

GFSMA_850_spd_003.txt.gz
Wind_Speed
7 6 6 7 8 10 13 14 16 18 21 23 26 27 25 22 21 20 19 20 20 19 19 20 20 19 18 18 20 21 21 20 19 20 21 21 21 23 22 23 24 26 26
6 6 7 9 11 16 19 22 27 23 21 25 29 26 25 25 20 16 13 15 18 22 24 22 20 19 18 17 18 21 21 21 21 21 20 20 20 21 24 26 25 27 28
10 11 11 11 14 18 26 30 27 24 24 27 23 21 21 21 22 21 19 18 19 21 20 25 29 25 21 18 18 20 22 23 22 22 22 22 21 20 23 25 29 29 28
12 10 13 16 20 25 31 31 27 25 27 23 23 22 21 20 19 21 22 23 22 18 21 21 23 29 31 30 26 23 22 23 24 22 22 22 21 22 23 23 27 28 30
13 15 18 21 25 31 29 24 24 24 22 23 25 27 25 24 24 26 24 25 23 24 24 23 25 25 27 32 34 29 26 26 25 25 24 21 21 22 22 24 23 25 30
15 17 19 25 29 26 22 20 21 22 23 24 27 28 30 31 32 31 26 26 26 23 21 19 20 23 25 27 31 35 32 27 26 27 28 26 23 22 23 23 25 24 24
20 23 25 25 22 19 17 19 21 23 24 27 30 34 37 31 25 23 16 18 25 25 21 17 15 17 20 25 26 31 35 32 28 28 28 29 27 24 23 25 25 24 23
21 21 24 21 19 18 19 21 23 25 26 28 30 32 20 29 15 20 25 18 21 24 25 27 27 27 25 24 25 26 30 37 34 29 30 32 29 27 25 24 26 25 23
19 18 16 17 20 21 22 22 23 24 27 25 24 18 13 9 25 22 26 22 23 30 34 35 35 35 34 32 29 30 28 29 37 35 29 30 31 30 26 25 25 26 24
16 16 19 23 29 27 23 22 26 26 24 21 18 16 16 16 20 21 19 35 37 36 33 31 30 28 28 26 28 33 32 33 32 33 34 31 31 34 29 25 24 24 23
17 20 25 33 31 21 23 26 31 25 20 17 16 19 21 21 17 23 31 26 33 37 35 33 31 27 20 21 22 26 30 34 30 25 32 33 27 33 28 24 23 23 22
29 33 36 26 24 25 29 28 30 24 22 22 22 19 19 19 21 19 22 29 29 33 29 26 28 22 15 14 17 21 25 24 31 29 25 34 35 33 29 25 22 21 19
28 28 24 21 23 21 23 22 21 22 21 17 16 16 16 17 19 20 22 23 22 32 28 24 22 19 15 12 14 14 21 22 22 19 30 26 32 33 22 19 18 19 19
24 22 20 20 18 21 21 20 20 20 20 17 15 17 20 17 15 16 17 22 32 28 30 28 23 18 13 12 8 10 12 16 22 23 20 24 32 37 29 11 14 17 16
25 17 13 17 19 19 18 17 18 16 16 18 21 22 21 19 19 19 21 25 27 27 32 29 25 21 14 12 10 9 8 11 13 17 16 17 26 30 31 20 20 17 13
23 22 24 21 12 16 19 18 16 16 20 22 23 23 22 21 21 24 27 30 28 26 32 25 25 22 13 11 10 8 8 7 11 11 17 18 18 29 33 31 22 19 26
18 17 15 10 19 14 15 18 19 20 23 24 23 21 23 26 29 30 31 31 32 28 30 29 24 21 17 15 13 4 4 7 9 12 13 23 19 19 15 9 8 12 21
17 18 25 20 11 14 16 17 21 23 24 25 23 24 28 31 34 35 35 36 32 29 30 30 21 18 12 11 16 16 8 6 9 12 14 18 22 16 26 16 14 12 9
24 26 19 7 11 16 18 19 22 24 28 26 24 29 35 35 32 30 31 30 25 24 25 27 25 21 19 20 19 17 20 17 9 8 11 15 18 17 18 18 17 11 14
23 12 8 6 13 19 18 22 25 26 23 25 31 33 31 28 29 28 29 22 18 19 16 19 22 24 20 21 23 22 20 19 15 9 5 9 14 10 11 17 15 16 15
16 10 7 10 18 18 22 22 23 23 27 31 32 30 27 26 26 25 22 24 23 24 20 16 12 14 16 17 20 20 19 21 22 18 14 5 5 8 7 14 17 16 16
11 8 13 17 17 21 20 21 23 28 30 30 29 29 26 28 24 27 25 21 20 20 19 19 19 14 11 13 13 14 16 16 19 20 21 19 10 6 8 8 10 13 15
9 12 16 17 19 21 22 23 26 29 29 29 29 27 27 29 28 24 20 17 18 17 18 19 21 19 19 16 15 17 17 17 18 18 19 25 23 19 14 9 6 9 9
13 18 14 16 22 22 23 25 29 26 25 25 25 26 25 22 21 19 21 20 15 16 15 14 16 19 19 18 21 21 20 21 21 22 18 22 24 24 23 25 20 14 15
16 12 13 18 21 21 24 27 27 28 28 25 21 21 18 18 16 19 18 20 20 20 20 21 20 19 14 16 14 15 16 16 16 20 18 18 21 20 22 21 20 23 23
11 11 18 17 19 21 24 23 25 25 25 22 20 18 15 16 18 20 21 20 22 22 16 15 16 16 20 22 21 20 18 14 17 15 16 14 14 10 8 14 17 17 18

GFSMA_850_spd_006.txt.gz
Wind_Speed
2 5 7 9 9 10 10 12 18 22 23 22 22 25 24 22 18 17 17 17 16 16 17 16 18 19 20 19 20 16 15 16 16 18 17 17 18 18 19 21 21 23 24
5 7 9 8 8 10 13 18 24 24 20 20 22 18 15 17 18 18 17 17 17 19 19 21 22 21 19 20 21 24 22 18 17 17 19 18 18 18 18 19 22 23 24
9 10 9 9 12 16 19 24 26 19 18 18 17 16 17 17 20 21 22 21 18 18 19 19 21 25 26 24 24 26 27 26 21 17 16 17 18 19 20 19 21 24 24
8 8 11 16 19 21 24 25 21 18 18 18 17 18 21 23 23 24 25 25 25 23 21 21 22 23 24 28 28 29 31 30 26 23 17 16 18 18 19 21 21 22 24
11 13 16 20 23 24 24 21 18 18 19 19 20 21 22 23 25 28 26 24 22 20 21 21 23 23 25 28 28 32 32 33 31 25 24 19 17 18 16 18 21 21 22
15 19 22 20 24 26 24 21 20 21 23 25 25 27 27 27 27 24 25 21 19 20 20 20 20 19 23 25 25 27 30 32 34 31 22 24 22 20 19 18 18 20 21
20 19 22 25 25 22 20 20 20 22 24 27 30 31 31 28 25 25 18 20 25 26 26 26 27 27 26 25 27 26 24 27 31 35 28 21 24 24 22 21 20 20 20
18 20 21 22 18 18 22 24 25 24 25 27 27 28 14 21 13 14 25 24 24 28 28 30 32 35 36 37 35 34 32 27 26 30 35 30 22 25 26 24 22 22 21
18 19 18 17 21 30 32 31 28 27 28 26 23 16 10 7 23 22 24 29 24 30 36 33 32 33 32 33 36 36 38 39 32 28 30 36 29 25 27 28 24 22 24
18 20 23 29 34 33 28 23 27 28 28 27 21 17 14 16 14 19 20 30 34 34 36 37 35 31 27 25 25 28 33 36 39 36 31 30 33 29 26 31 29 25 24
26 29 29 29 26 23 25 23 24 25 25 21 21 23 23 20 14 15 26 25 27 31 29 29 26 26 23 20 22 23 25 29 33 33 34 31 30 29 25 29 31 28 25
24 30 29 28 25 18 18 20 22 22 21 19 17 15 15 16 18 17 18 22 25 32 27 20 20 22 22 20 20 21 23 26 29 32 28 27 25 24 31 31 31 28 24
26 26 24 25 18 15 12 14 19 22 18 16 14 14 16 18 18 18 19 22 26 34 31 32 25 18 18 22 21 19 21 24 26 28 23 20 21 23 26 30 29 27 24
27 25 22 23 23 24 27 14 14 17 15 16 16 17 16 16 16 18 20 24 32 29 35 35 33 25 20 19 17 14 14 15 18 23 26 24 26 25 26 22 19 19 21
28 24 19 20 22 22 9 12 15 15 15 15 17 18 20 19 17 18 20 22 26 33 37 32 33 28 21 20 19 11 11 10 11 18 21 30 26 24 24 30 24 24 21
21 19 16 25 18 19 13 10 12 14 16 17 19 21 21 21 21 23 27 29 30 33 38 39 42 33 23 20 23 18 7 11 11 10 15 13 23 28 28 26 30 32 29
17 20 21 25 17 16 8 11 14 15 19 20 24 24 23 23 27 31 34 34 33 32 35 39 36 33 26 19 22 22 2 8 9 12 12 13 12 21 26 25 30 26 27
17 17 18 25 19 10 9 12 17 18 22 24 24 23 27 31 35 34 30 30 30 30 29 32 30 29 23 17 19 15 18 8 12 13 14 14 13 13 21 22 18 13 11
12 19 22 20 8 7 11 15 18 21 25 26 27 29 33 35 34 30 29 29 30 25 23 20 25 24 24 23 23 23 18 16 21 13 13 14 13 13 17 26 21 15 13
20 18 16 12 9 11 15 19 22 24 25 25 29 33 34 32 30 29 29 29 25 27 26 27 24 23 21 22 24 23 23 23 18 15 15 14 11 8 12 17 24 18 17
15 16 12 11 11 15 18 20 23 25 27 31 33 33 32 30 26 25 26 28 29 27 26 24 24 24 19 16 21 20 22 24 20 19 17 14 9 5 7 7 12 15 15
13 13 9 11 16 20 19 20 24 27 30 34 32 32 31 29 28 25 28 23 20 22 24 25 24 23 24 22 15 17 14 16 18 18 17 16 16 6 2 7 8 14 17
13 14 13 16 20 15 18 24 25 29 31 29 29 29 27 24 23 21 19 17 21 20 16 19 20 23 22 20 22 18 14 15 18 16 17 19 19 19 13 7 13 12 14
16 17 16 13 11 19 23 24 28 27 26 26 25 22 22 21 18 17 24 22 20 19 20 18 19 19 18 19 21 22 23 23 23 23 20 23 21 21 22 20 16 12 14
17 15 12 11 22 18 22 26 25 24 24 23 20 19 19 19 17 19 22 23 20 18 18 20 19 19 22 23 16 15 20 22 21 21 21 22 23 20 19 21 22 24 20
15 15 15 15 15 19 22 22 21 22 23 22 20 19 17 18 18 19 19 22 20 20 19 18 17 17 18 21 25 24 22 13 15 16 14 15 16 13 8 13 17 19 20

GFSMA_850_spd_009.txt.gz
Wind_Speed
5 4 6 7 7 9 10 12 15 19 21 20 19 19 20 18 17 18 18 19 18 17 18 19 19 17 19 20 20 18 14 14 13 12 12 13 12 14 16 18 20 20 20
8 8 9 9 11 12 15 17 20 23 22 18 18 18 15 14 15 17 19 21 20 19 19 21 21 21 20 21 26 25 24 20 18 16 14 14 15 15 16 17 19 21 22
12 10 12 14 15 16 19 21 24 23 21 19 18 17 16 18 20 21 21 21 23 25 25 25 24 24 23 22 23 27 29 26 26 25 20 17 14 14 15 16 17 22 23
9 9 12 14 17 19 22 23 22 19 17 17 17 18 20 23 25 26 25 25 25 26 27 27 26 26 26 26 25 24 25 29 28 27 27 23 18 16 15 14 18 22 22
10 13 16 18 19 23 25 22 19 17 17 18 20 21 23 25 27 28 28 27 26 26 25 25 26 26 27 28 28 27 26 25 27 28 26 29 26 18 15 15 17 19 21
13 16 16 17 21 22 21 19 19 20 22 24 24 25 28 29 27 25 25 26 26 24 24 26 27 29 29 29 29 29 28 24 26 26 26 23 28 27 21 17 19 18 18
14 16 15 19 20 20 20 20 22 24 26 27 25 21 23 21 18 18 23 20 21 24 26 26 28 30 33 34 34 34 34 32 28 25 23 24 27 29 28 24 21 19 18
14 15 17 17 19 23 26 27 25 22 22 26 22 16 15 14 14 16 15 21 26 29 28 30 33 33 32 33 36 37 36 37 38 33 29 25 25 28 28 28 25 22 21
15 17 18 21 25 26 24 20 18 18 16 22 23 11 10 11 18 13 17 17 20 24 28 30 30 31 32 32 32 34 35 34 36 38 35 32 29 25 29 28 27 26 23
18 21 24 26 25 24 20 19 19 19 18 14 15 10 14 15 17 20 17 20 20 22 22 21 24 27 28 26 28 29 31 33 32 33 34 33 33 31 25 31 30 29 27
22 25 27 30 29 23 20 19 18 13 16 19 18 15 12 12 12 14 23 21 21 19 18 21 19 22 24 27 27 26 30 29 29 30 30 27 26 31 29 28 28 30 30
27 29 31 29 26 25 23 20 19 22 19 19 15 10 9 11 13 14 17 21 25 23 22 21 20 21 23 25 27 28 29 29 29 28 27 24 22 20 20 24 27 31 31
31 32 28 25 24 23 18 17 20 14 12 13 13 10 12 12 13 14 15 20 24 28 26 23 24 24 24 24 25 28 26 25 25 25 24 22 20 19 17 23 29 30 28
31 29 26 23 21 20 17 24 14 10 12 12 14 13 14 15 19 19 18 19 28 31 32 31 28 26 24 23 26 29 23 22 20 18 18 18 22 22 21 18 20 24 27
28 24 20 17 18 18 25 13 9 9 11 14 16 16 20 20 20 21 22 20 21 33 39 38 35 28 30 29 27 25 22 22 19 15 13 13 15 23 22 28 20 20 20
26 20 17 19 14 20 15 7 7 9 13 15 18 20 21 22 22 23 23 25 23 26 36 33 33 31 29 27 25 24 22 22 15 14 13 9 11 15 21 26 28 31 22
21 14 16 16 20 20 13 10 9 11 14 17 20 22 23 23 22 21 21 22 22 22 29 39 30 28 27 25 23 21 20 20 12 5 9 13 11 11 13 19 24 27 29
17 12 15 18 21 23 13 10 11 13 17 21 21 21 23 25 24 23 23 23 23 23 25 32 28 24 23 22 22 19 16 17 20 7 9 9 12 11 11 12 21 23 28
22 15 16 24 21 13 10 13 15 17 22 21 22 25 29 30 26 25 25 25 22 21 21 23 30 27 24 22 21 20 18 18 16 18 19 13 13 11 10 10 15 20 25
21 17 17 18 15 13 12 14 18 20 24 24 26 30 33 30 24 24 24 23 22 21 23 24 25 23 22 20 18 18 20 17 17 16 16 16 16 15 10 10 15 22 23
17 15 15 13 8 11 15 18 18 22 25 27 31 32 30 29 28 24 20 21 22 22 20 20 22 21 20 18 16 13 14 18 17 15 15 12 13 11 12 9 9 28 24
14 13 13 14 12 12 19 19 20 24 27 31 30 29 29 26 20 21 20 16 15 18 21 20 21 20 21 18 16 14 15 13 15 11 7 8 11 7 5 9 6 12 22
15 15 17 16 19 18 12 21 22 26 29 28 27 26 24 19 17 16 17 20 20 20 20 21 22 20 20 18 18 16 14 13 12 12 10 11 10 9 11 7 6 5 10
17 17 19 16 12 13 20 20 25 27 24 24 24 22 20 17 15 17 20 20 18 18 16 17 19 19 19 19 18 17 17 16 17 16 13 15 12 12 11 15 13 8 12
15 15 15 14 14 15 18 23 25 23 21 22 21 18 18 16 16 17 19 20 19 19 16 19 18 17 19 19 19 18 19 14 15 18 17 17 17 16 13 16 20 18 13
17 17 15 14 15 15 20 23 22 20 20 20 19 19 19 17 16 19 18 18 18 18 20 18 15 14 15 16 17 18 18 17 12 11 11 13 11 9 8 10 16 21 22

GFSMA_850_spd_015.txt.gz
Wind_Speed
8 4 10 9 12 12 12 13 15 13 15 16 16 17 15 15 14 14 14 21 20 20 20 19 19 19 19 19 18 18 18 19 19 21 19 17 14 15 16 18 18 18 18
15 20 18 11 15 14 15 13 14 16 16 16 17 16 17 17 17 15 13 21 22 20 22 21 21 22 22 21 21 21 21 21 21 22 23 21 20 18 18 18 20 21 20
13 11 14 12 15 18 13 13 15 14 16 18 18 18 19 18 19 19 17 15 19 20 18 22 25 24 24 25 25 22 22 22 22 22 22 24 23 21 21 21 20 22 23
4 6 7 6 8 8 11 13 14 15 16 17 19 19 20 20 20 20 20 18 14 16 19 20 21 25 27 26 28 28 26 23 22 23 23 22 23 22 22 23 22 21 23
3 1 4 5 9 10 12 14 13 17 19 21 22 21 22 24 22 21 21 20 15 17 13 19 23 21 19 25 28 27 25 27 26 25 25 25 25 24 24 23 24 24 23
3 1 6 9 12 11 14 15 17 18 21 23 23 22 23 22 23 23 17 15 16 15 14 16 20 19 22 24 26 26 18 28 21 18 27 28 27 26 25 27 25 26 25
4 8 6 9 12 13 15 17 20 21 20 19 22 22 22 22 21 15 22 17 13 17 18 19 20 20 21 21 18 18 25 18 19 30 30 28 29 30 29 25 29 28 27
5 6 10 12 13 16 18 19 19 20 18 17 19 22 25 24 19 15 17 19 23 20 21 21 21 21 20 19 19 22 17 24 28 29 30 30 29 30 31 31 27 29 30
7 9 12 14 16 17 19 19 18 16 18 18 16 19 24 23 25 23 23 24 25 23 21 22 22 21 21 21 19 19 22 28 31 30 28 28 30 30 30 33 32 29 31
10 13 15 17 17 18 19 18 15 15 16 17 18 18 20 22 26 29 23 22 22 23 23 25 22 22 23 21 22 21 24 28 32 34 31 28 28 30 29 30 34 33 30
11 13 15 16 18 18 17 16 16 14 15 17 18 19 18 18 18 23 28 26 24 23 22 22 20 23 24 24 25 25 28 33 36 35 31 28 27 26 27 27 28 33 32
11 12 15 17 18 17 16 15 15 15 16 16 16 13 15 18 20 21 23 25 26 26 23 22 24 24 25 27 28 29 30 31 35 36 30 27 26 25 24 25 25 27 29
11 13 17 17 17 15 15 14 16 19 18 11 12 13 15 15 17 18 21 25 27 27 27 25 25 26 27 29 29 30 32 36 38 29 28 33 28 24 25 25 26 25 27
12 15 15 16 15 13 14 16 16 14 12 13 12 13 14 15 16 18 20 23 28 31 29 29 29 29 29 29 30 32 31 31 32 29 30 33 31 23 24 27 25 30 26
13 14 15 15 14 16 17 18 16 13 15 13 12 14 14 14 16 18 21 22 25 30 33 33 33 30 29 30 31 30 29 30 30 32 34 32 28 25 25 25 24 27 28
13 14 15 15 15 18 16 15 15 18 17 14 11 14 16 16 18 20 21 23 26 31 37 34 34 33 30 31 29 31 30 31 30 29 27 27 28 27 26 23 21 23 28
13 15 15 14 14 15 18 18 21 22 19 16 13 15 16 18 19 20 25 27 29 30 33 37 36 33 30 29 29 29 29 29 28 27 28 26 27 26 25 21 19 22 26
14 15 15 14 15 17 19 19 18 15 13 15 16 17 18 21 22 25 26 26 28 28 31 35 37 32 29 27 28 27 26 24 26 25 28 28 16 22 23 18 17 19 18
15 15 14 15 15 16 16 16 14 14 14 15 15 17 19 21 24 25 23 23 25 26 26 29 33 30 29 26 25 24 23 23 23 23 28 24 15 16 21 7 11 15 18
15 14 13 14 13 13 13 12 11 11 13 15 15 17 21 22 20 19 23 20 20 22 23 24 26 26 26 23 25 25 23 22 24 22 23 17 13 18 15 13 15 12 16
15 14 14 13 12 11 11 12 11 13 16 16 17 20 19 20 27 27 22 18 18 18 20 22 25 26 25 24 24 25 21 21 21 21 21 13 13 12 12 7 12 15 12
15 15 14 14 13 12 14 13 13 11 13 16 18 17 16 17 16 22 18 19 23 19 21 22 24 26 26 24 22 25 22 20 21 19 17 16 11 11 11 13 8 13 12
16 15 15 14 14 12 13 13 13 14 13 15 15 15 15 14 17 16 17 21 20 22 24 27 23 23 25 23 24 23 19 19 20 20 19 16 11 10 8 8 10 14 13
16 15 14 13 12 14 16 15 15 16 14 13 13 13 13 13 15 21 23 19 19 19 19 19 22 25 24 26 25 23 23 23 23 22 19 18 15 16 13 10 11 14 11
16 15 13 11 12 15 18 16 16 18 13 13 12 12 13 13 16 20 22 19 19 18 17 21 23 25 23 19 17 17 19 19 20 18 17 20 18 17 14 13 13 16 12
15 13 13 11 12 14 20 17 16 19 13 12 11 11 15 20 22 21 21 21 19 19 22 21 19 18 17 17 18 15 15 16 17 19 15 12 14 14 15 17 15 16 14

GFSMA_850_spd_021.txt.gz
Wind_Speed
2 6 11 9 11 7 9 11 12 12 10 9 8 9 11 12 13 14 13 15 16 18 21 22 19 17 19 19 18 16 15 15 16 16 17 16 13 17 19 17 17 16 13
8 8 10 10 7 6 9 10 10 10 14 17 14 15 16 17 17 14 11 16 20 19 21 19 16 16 19 22 25 29 25 22 19 18 20 20 20 17 19 21 19 20 19
0 2 4 7 6 5 6 10 14 16 17 15 16 20 15 14 16 17 16 16 19 19 17 16 18 17 17 20 24 26 26 23 20 23 22 23 23 23 21 21 23 22 22
5 4 2 3 5 8 12 13 15 13 14 20 22 19 13 15 18 18 21 15 18 20 16 18 16 16 12 18 18 20 21 12 20 20 18 20 23 25 26 25 23 24 25
4 0 2 7 9 10 11 13 15 18 23 25 22 20 15 14 15 12 17 14 13 11 11 14 18 17 13 12 11 11 14 14 21 18 18 20 24 28 28 27 28 26 26
3 4 6 7 9 12 15 16 19 22 22 21 23 19 16 12 14 13 12 6 6 8 7 10 15 18 18 21 20 16 14 18 15 15 19 20 22 24 28 27 26 28 28
5 8 8 12 15 17 19 21 22 21 21 21 20 21 21 18 9 12 14 12 14 14 15 16 19 22 22 18 18 17 16 12 13 13 17 22 26 26 26 28 27 26 29
6 9 12 15 16 18 20 19 19 21 17 16 19 19 12 21 6 10 15 17 20 17 14 15 17 15 13 13 13 15 13 15 18 20 19 20 25 28 29 29 27 27 26
8 13 15 17 18 21 21 22 21 18 17 16 17 14 9 5 21 11 19 11 17 19 17 15 17 16 13 16 19 16 14 15 19 20 21 21 24 29 33 31 28 28 26
13 17 20 19 20 20 20 21 20 19 20 22 18 14 16 16 17 15 12 12 11 15 22 22 17 19 20 20 15 15 16 17 20 27 25 27 30 30 30 32 30 29 26
15 19 20 19 18 19 18 15 15 16 18 16 16 17 18 20 19 17 23 21 20 19 22 16 20 23 24 23 25 26 27 29 31 33 33 29 31 33 33 30 29 31 28
18 16 15 16 17 16 15 14 15 17 19 20 20 23 17 12 13 14 18 21 24 22 19 21 24 26 28 29 28 30 31 28 31 34 37 32 32 31 30 29 28 31 29
13 14 15 16 15 14 15 15 16 20 21 22 20 13 14 13 15 17 13 17 19 23 25 26 28 28 27 28 27 24 27 32 36 38 38 35 33 34 32 30 30 32 30
11 13 14 14 15 12 13 17 19 19 14 15 14 15 16 17 14 13 14 14 20 27 29 31 32 30 25 23 22 26 32 36 39 43 43 43 37 33 30 29 29 28 28
11 11 13 14 14 14 14 14 18 16 15 14 16 16 18 17 12 16 18 17 17 25 30 33 28 22 21 26 31 34 38 41 46 44 37 31 25 26 26 28 29 27 25
11 13 14 15 16 14 10 12 15 14 15 17 17 18 16 15 14 18 18 16 16 23 25 29 32 33 33 35 37 40 43 42 33 27 23 24 26 29 29 28 25 25 26
13 16 15 16 15 11 12 13 16 21 19 16 14 10 11 13 19 20 17 20 23 25 28 34 38 39 39 39 39 37 29 27 25 26 26 24 26 28 28 28 24 26 25
18 20 18 18 11 15 18 20 22 16 12 13 14 12 16 16 17 20 22 26 28 28 32 36 35 35 35 32 30 28 24 25 26 24 23 24 27 30 28 25 26 22 24
20 21 21 19 11 15 20 20 17 14 9 12 10 12 17 18 19 22 23 27 30 32 28 27 31 28 25 23 24 23 26 26 24 25 26 21 22 24 26 28 21 17 19
20 20 22 16 13 19 20 19 18 17 14 16 19 17 16 18 21 24 28 30 27 28 26 28 27 27 26 25 25 28 28 28 31 27 22 17 22 22 23 24 16 18 20
20 23 20 15 17 19 20 22 16 17 21 21 17 17 20 22 25 27 26 26 28 26 28 29 27 28 30 29 27 29 29 34 39 36 28 23 23 22 23 13 15 20 20
19 18 19 20 21 20 20 21 19 17 17 16 17 19 20 22 22 23 24 24 24 27 28 23 24 27 25 23 27 31 36 35 35 27 25 28 23 23 22 19 13 12 3
17 20 20 22 21 21 21 20 21 18 17 18 20 19 20 22 22 23 24 25 22 23 20 20 20 24 28 28 30 32 23 25 29 27 25 26 23 24 21 19 16 16 13
22 20 22 24 22 21 21 19 18 18 19 20 20 19 21 20 20 21 23 22 23 21 19 15 21 27 29 24 18 19 23 26 27 23 19 24 20 21 20 16 14 12 16
20 21 22 21 22 19 19 19 18 19 20 20 20 22 18 17 20 22 23 25 24 20 17 17 16 16 14 11 13 18 21 21 26 25 22 18 20 22 22 11 10 13 15
23 24 19 19 20 22 22 22 23 22 20 19 21 19 17 18 20 21 23 24 21 17 17 17 19 14 10 11 12 14 17 21 25 31 25 21 22 17 22 6 6 13 20

GFSMA_850_spd_024.txt.gz
Wind_Speed
8 9 11 10 7 4 8 11 13 14 11 10 10 8 9 12 14 15 14 11 9 12 13 17 18 16 15 18 16 19 23 30 26 20 20 19 18 17 18 18 17 17 16
10 10 12 12 9 7 9 11 11 11 13 14 14 12 17 17 14 15 17 17 14 9 13 16 14 13 10 13 16 18 20 23 25 24 21 19 21 21 21 21 21 20 20
13 10 8 7 6 5 7 9 11 13 14 15 15 16 16 9 10 14 18 20 17 12 11 10 9 10 12 8 9 13 10 12 17 22 19 20 24 26 25 26 25 25 23
7 6 5 4 3 7 10 13 15 16 16 19 21 16 13 11 9 11 15 17 13 6 5 7 8 12 15 14 12 12 7 8 11 14 14 22 28 34 36 32 28 28 28
7 7 6 4 7 10 12 14 17 19 22 22 18 18 12 7 8 9 11 8 4 6 3 8 7 9 12 15 14 11 13 14 15 13 18 26 33 34 33 30 28 26 28
8 5 5 6 9 12 17 19 20 21 20 20 19 15 12 10 12 9 6 6 5 2 2 4 10 14 20 19 18 12 12 14 10 14 19 22 22 21 21 23 25 26 26
5 6 8 11 15 20 21 20 19 19 19 19 17 17 18 6 6 9 11 10 11 12 13 14 15 15 14 12 14 15 12 13 13 13 14 15 17 20 22 24 26 26 25
10 8 9 14 18 19 19 19 19 20 18 16 16 18 4 16 4 4 13 16 17 17 17 15 14 11 10 11 13 12 11 11 12 13 17 17 18 22 25 27 28 27 27
12 10 14 19 20 19 19 19 20 18 16 16 18 14 6 4 16 6 10 7 12 15 18 19 15 12 14 16 15 14 14 14 16 18 21 18 20 24 28 31 31 31 30
12 13 18 20 17 19 18 18 17 16 16 15 17 16 14 16 13 8 13 15 13 15 15 17 21 17 18 20 19 22 25 24 24 26 24 23 24 26 28 31 32 30 29
13 16 18 17 18 17 17 16 14 13 14 16 16 16 17 20 21 19 16 14 18 18 15 14 15 20 23 26 28 25 19 21 19 22 23 24 27 28 29 29 31 31 30
17 18 18 16 15 16 16 15 13 13 15 19 19 19 17 12 14 15 18 20 21 19 18 18 20 23 25 29 29 26 27 26 25 25 29 32 29 32 33 32 31 32 31
17 14 14 14 14 15 14 13 14 15 18 15 13 13 12 15 16 15 16 19 22 24 24 23 23 25 28 30 25 23 24 26 30 35 38 40 37 35 34 33 29 29 29
13 12 15 14 15 15 14 15 16 15 18 15 16 17 17 16 18 20 19 17 21 26 27 27 26 28 29 24 24 27 33 36 40 43 43 43 32 26 25 24 25 26 28
12 14 12 14 16 16 16 14 15 15 17 18 20 18 17 17 19 20 17 16 17 22 28 26 29 31 31 33 36 37 38 40 40 39 33 23 21 22 23 24 25 26 26
11 13 14 17 16 17 15 13 14 16 17 21 19 17 15 17 18 19 16 18 19 21 25 28 33 34 36 37 36 35 34 33 30 27 24 24 22 22 22 23 25 26 26
16 15 16 18 18 19 17 15 16 18 21 20 21 16 11 14 14 17 18 20 22 25 27 33 34 34 32 33 31 27 26 24 23 25 24 23 23 22 25 27 29 27 26
13 15 19 20 20 20 16 16 21 23 21 18 17 14 15 14 16 19 20 23 23 24 29 32 31 30 32 28 24 23 23 23 25 23 22 23 25 22 23 24 27 27 28
13 16 18 19 21 19 14 17 22 22 19 18 17 16 17 20 22 21 20 22 26 29 25 28 31 31 31 27 26 25 24 25 25 28 29 27 21 21 22 22 25 26 24
12 12 16 22 22 17 14 18 22 20 19 21 19 22 23 21 22 22 25 28 27 25 27 29 32 33 31 29 26 26 30 31 36 33 24 20 21 22 23 23 23 21 20
12 12 19 19 20 19 20 20 21 21 18 20 22 22 21 22 22 25 25 24 24 26 29 30 32 31 30 29 27 30 33 36 31 23 21 27 24 20 20 19 22 15 13
6 15 18 23 21 22 20 20 20 20 19 19 21 21 20 21 22 24 23 22 23 26 27 29 29 28 28 28 32 33 31 26 31 25 33 28 20 17 18 19 18 16 6
16 17 23 23 19 21 22 20 20 19 21 20 22 21 21 23 24 21 19 20 22 21 24 24 27 26 29 29 25 22 21 24 27 25 26 28 21 20 15 16 16 13 11
14 23 24 19 22 23 22 20 19 21 21 23 22 21 22 24 22 19 19 21 22 22 22 21 21 22 22 23 20 18 21 24 26 24 26 30 19 21 17 16 9 10 14
20 22 22 24 24 25 21 19 21 22 23 23 21 19 21 22 19 19 20 22 24 22 19 17 15 17 19 16 14 16 19 21 27 26 25 21 25 25 17 6 9 4 11
20 22 23 22 18 18 18 19 21 21 21 22 20 19 20 18 18 19 20 22 23 18 16 16 14 16 15 17 16 15 17 19 21 27 24 29 28 21 16 7 12 12 14

GFSMA_850_spd_027.txt.gz
Wind_Speed
8 7 8 9 7 6 7 8 9 10 9 9 10 11 12 15 20 19 16 13 11 12 10 12 13 10 8 9 11 13 14 18 19 21 21 21 22 22 21 21 21 22 22
9 9 12 11 10 8 8 7 8 9 11 12 11 13 17 21 18 16 13 12 13 12 8 9 8 5 4 9 12 14 17 20 20 17 18 23 25 22 20 20 23 25 25
13 13 12 11 8 7 6 8 9 11 12 13 15 17 17 14 16 18 17 16 16 14 7 8 8 8 9 8 8 9 9 9 12 13 13 16 22 25 28 30 32 32 30
16 12 10 9 7 5 6 9 11 12 14 17 18 16 15 11 11 14 15 14 12 7 6 7 7 10 9 11 8 8 8 10 12 10 11 18 22 28 32 36 38 38 35
12 12 8 6 5 5 8 12 13 17 18 17 16 14 11 10 14 15 15 13 8 5 7 8 8 10 12 14 13 9 11 12 14 11 13 19 25 28 31 30 26 23 27
11 9 8 5 5 8 12 15 18 19 19 18 15 12 11 14 14 14 14 9 7 5 6 8 11 13 12 12 13 10 11 14 15 13 15 15 17 18 23 23 21 22 24
10 10 6 6 9 13 18 22 24 22 20 19 16 14 14 8 7 10 10 13 13 13 13 15 15 14 14 15 13 13 12 14 14 17 17 17 18 18 19 21 23 24 25
12 8 7 9 12 17 21 25 24 22 21 18 15 14 1 8 18 9 12 14 16 15 17 20 19 19 17 15 15 14 14 15 15 17 17 19 19 20 23 24 25 26 27
12 10 11 12 14 19 24 25 23 20 18 17 14 10 5 4 8 16 10 15 10 16 16 18 20 20 19 17 18 19 20 23 21 19 20 22 23 24 25 27 28 27 28
13 13 14 15 18 22 23 22 20 19 16 14 13 12 10 11 10 9 12 15 19 14 16 16 16 17 17 20 21 25 28 23 19 19 21 21 23 25 26 27 30 30 29
16 17 16 16 19 22 21 19 17 15 12 12 13 14 15 17 17 16 17 12 14 17 18 15 14 17 18 21 24 27 30 28 20 23 22 20 23 26 29 31 34 34 33
19 18 15 15 19 19 25 18 15 14 14 15 18 15 13 13 13 15 17 18 19 20 19 18 16 21 23 23 25 27 26 27 26 25 26 30 31 32 35 35 35 35 34
19 14 13 14 19 23 16 15 14 15 15 16 14 13 13 13 15 16 19 20 21 19 18 17 19 22 23 26 27 24 26 27 30 35 38 38 40 41 37 32 29 28 29
16 14 17 24 14 14 15 14 14 13 13 14 15 16 17 16 16 17 19 21 20 22 24 20 21 23 25 29 33 32 34 36 37 38 38 37 32 26 27 27 26 26 28
15 19 18 13 11 13 15 14 11 10 12 15 17 19 20 17 16 19 20 20 23 21 25 24 23 27 29 33 34 32 31 32 32 32 30 26 23 24 25 25 25 25 26
22 16 14 10 11 12 15 15 14 12 13 16 20 18 18 16 15 17 18 19 21 23 26 29 29 29 33 31 29 29 29 28 26 24 25 26 23 23 25 25 25 26 26
12 9 11 10 10 14 17 16 13 13 16 17 20 18 16 14 17 19 20 20 22 22 25 30 32 32 30 31 30 28 27 26 25 25 26 24 25 24 25 24 26 26 27
14 11 9 10 12 15 18 15 13 14 17 18 17 18 18 17 18 18 19 21 23 21 25 31 31 31 31 30 29 28 25 23 22 24 27 29 30 29 26 24 25 27 28
15 13 9 8 11 17 16 16 15 16 17 20 17 19 19 18 21 21 22 23 23 25 25 26 30 31 31 29 30 29 26 26 26 28 24 20 21 24 26 26 27 26 27
16 13 8 7 16 15 17 16 17 18 19 20 18 19 20 21 20 22 23 24 24 24 24 25 29 30 30 29 29 30 33 33 32 21 15 19 22 22 23 25 25 24 26
16 11 5 13 16 18 18 19 20 19 19 21 19 20 22 21 22 23 23 24 23 23 23 26 27 29 29 29 28 31 30 28 23 18 22 22 23 22 21 17 21 22 22
13 5 11 21 21 22 20 19 19 19 19 21 19 21 21 22 22 23 24 24 21 21 23 25 27 28 28 26 28 26 26 24 28 23 29 28 24 22 18 19 17 20 19
11 9 24 17 22 23 21 20 20 18 20 21 21 21 23 22 22 23 24 22 20 21 22 25 26 24 25 23 26 26 21 23 25 28 26 28 22 22 21 17 16 19 18
15 24 16 20 23 24 23 21 20 19 20 21 22 23 23 22 21 23 21 20 20 21 22 23 21 20 19 22 22 22 22 25 29 28 22 28 26 27 23 16 11 9 8
29 16 19 23 25 25 22 19 17 17 19 21 21 22 23 22 19 21 20 20 21 21 22 18 16 17 17 17 20 22 23 24 30 29 23 22 30 31 27 16 8 11 12
13 19 23 23 24 24 21 19 17 19 21 21 22 24 23 20 20 20 20 19 21 19 17 16 15 15 15 17 20 18 19 22 24 28 22 29 30 29 22 18 9 17 16

GFSMA_850_spd_030.txt.gz
Wind_Speed
10 11 9 9 7 5 5 7 7 6 8 9 11 13 14 16 17 19 15 11 8 7 5 7 9 8 6 4 8 10 11 15 16 16 19 20 18 19 19 18 19 19 19
10 9 8 9 9 8 7 5 5 7 10 12 14 17 18 18 16 13 12 11 12 11 8 8 7 4 2 7 10 11 12 10 13 13 15 16 19 22 22 23 26 27 27
11 10 11 11 10 8 5 5 7 10 13 15 16 16 14 14 12 11 10 9 8 8 10 11 11 6 3 5 9 7 9 10 11 12 14 14 18 19 24 28 30 32 34
13 13 13 11 9 5 4 7 9 11 13 14 13 14 14 13 13 14 12 10 9 7 8 9 10 8 11 13 12 14 12 11 11 13 13 12 14 16 18 24 28 29 30
15 14 11 9 7 5 5 8 11 12 13 14 14 14 14 14 14 13 13 12 9 5 6 9 10 11 13 14 13 8 9 10 12 14 14 16 16 15 18 24 27 21 21
13 12 11 9 7 6 7 9 11 14 15 15 14 13 14 14 12 11 9 11 8 7 8 9 10 13 16 16 15 13 10 12 14 13 15 17 16 18 21 21 21 22 23
13 14 12 9 7 6 7 10 14 16 16 16 15 16 14 9 8 8 15 12 11 15 14 12 16 17 16 17 16 15 11 13 14 16 17 18 21 21 22 22 23 23 24
16 14 11 10 9 8 10 14 17 20 20 18 16 16 6 11 11 13 12 19 17 16 12 20 17 19 18 17 16 15 16 16 17 18 18 19 20 22 23 24 24 25 26
15 13 12 12 9 9 13 17 20 22 20 19 16 12 6 4 15 15 16 13 16 11 16 16 18 19 18 17 17 18 19 22 24 18 18 19 21 22 23 24 25 26 27
17 16 14 12 10 11 15 20 26 25 20 17 15 13 12 13 9 10 8 14 15 18 15 18 18 17 15 18 20 21 24 26 27 24 19 19 22 24 25 26 27 29 31
18 17 17 13 10 11 18 30 32 23 18 14 13 14 14 14 14 15 19 16 16 13 19 19 18 17 17 21 23 26 26 30 31 30 28 23 24 25 27 29 30 32 34
20 20 16 13 13 18 24 30 21 19 17 15 14 13 10 10 12 13 17 19 20 20 20 19 18 20 21 24 25 26 29 32 33 33 32 32 29 31 32 33 34 33 32
24 22 19 18 18 19 25 18 17 17 16 14 12 11 10 12 13 15 16 18 21 23 21 18 20 20 24 26 27 30 34 36 36 36 36 38 35 32 31 30 28 29 29
27 25 23 19 20 30 19 15 16 14 14 12 11 12 13 14 14 15 15 17 19 21 23 22 19 21 22 27 31 35 36 33 33 32 32 32 30 26 26 25 27 27 27
27 26 20 19 27 18 13 12 12 13 12 11 11 13 15 14 14 14 15 16 17 21 24 22 21 21 23 29 33 31 31 31 32 31 29 28 26 25 24 24 25 27 27
29 23 19 18 12 10 8 8 12 13 10 9 10 12 12 12 11 10 13 17 19 20 26 27 26 24 27 29 28 30 30 29 29 28 27 27 27 24 24 25 26 26 26
27 21 17 10 9 7 6 17 15 11 11 10 11 12 13 13 13 13 16 18 20 21 26 29 28 28 29 28 29 28 27 27 27 25 25 26 27 27 28 29 29 26 25
24 19 13 11 8 6 10 15 11 11 11 12 14 15 14 14 16 17 19 19 20 22 23 29 31 29 28 28 28 29 27 25 27 26 26 25 24 21 21 24 25 28 28
22 19 16 12 9 6 16 15 15 14 14 14 15 17 16 16 17 19 18 19 20 21 23 26 28 28 30 28 29 28 28 29 27 24 17 14 15 20 21 22 24 26 29
20 19 15 12 9 8 17 17 18 19 18 18 18 20 19 18 19 19 19 20 21 22 23 23 25 27 28 29 27 29 30 28 28 20 14 15 17 20 22 22 23 23 21
20 18 15 13 10 15 20 20 21 22 22 21 21 22 20 20 19 20 20 21 23 23 21 21 24 27 28 29 26 26 28 29 26 18 21 20 18 20 18 18 20 19 19
24 22 18 17 12 27 17 21 21 22 22 22 23 23 20 21 21 21 21 23 24 22 20 21 24 26 27 25 24 25 26 26 24 22 29 26 22 19 20 21 19 18 20
23 22 21 13 28 25 17 22 22 23 23 23 23 24 22 22 22 22 23 23 24 21 21 22 25 25 24 21 22 24 25 25 25 28 28 30 21 24 24 23 18 13 10
18 12 16 25 27 16 24 25 25 25 25 25 23 23 24 24 23 22 22 23 22 21 21 22 24 21 19 19 20 22 26 28 28 26 23 28 21 27 27 26 15 13 11
16 21 28 24 16 24 24 24 23 22 22 21 20 22 24 24 22 22 22 22 22 22 20 22 20 18 17 17 18 21 24 25 30 29 21 16 25 29 29 23 13 13 14
26 29 15 18 24 25 24 24 23 23 24 21 22 23 25 24 23 22 23 22 23 20 19 20 17 16 16 17 18 19 21 22 25 26 15 26 27 25 29 28 23 19 16

GFSMA_850_spd_033.txt.gz
Wind_Speed
13 11 9 8 7 4 3 4 6 7 8 10 11 13 15 16 16 14 12 10 8 7 7 9 9 8 6 5 6 8 12 7 7 11 15 19 18 14 17 17 17 20 22
11 10 9 9 8 5 5 6 6 6 8 12 15 16 15 12 11 10 9 10 10 9 9 10 9 6 4 4 7 8 6 8 9 10 14 16 13 14 18 19 20 23 25
12 10 10 9 7 7 7 6 5 7 11 14 14 14 13 11 9 8 8 7 5 5 7 12 12 8 6 4 4 3 4 7 9 10 12 10 14 13 12 14 17 20 23
11 11 10 10 10 8 7 4 5 9 11 12 12 12 11 11 10 9 7 5 5 4 7 12 14 14 13 12 11 15 15 13 10 11 11 11 16 14 13 16 19 18 17
12 13 13 11 10 10 7 5 7 9 10 11 10 10 11 12 12 9 7 5 5 2 6 9 12 13 15 16 17 15 9 9 11 12 13 14 15 14 14 18 19 18 19
14 15 12 13 13 11 7 7 7 8 8 9 10 11 14 13 9 7 5 9 5 5 5 9 11 13 15 16 16 16 11 12 12 13 14 16 16 17 19 20 18 19 20
14 15 16 15 13 9 9 7 7 7 10 12 12 16 11 8 8 8 8 8 10 12 13 12 12 16 15 16 15 15 11 10 12 15 17 18 18 19 20 21 21 21 21
16 18 18 15 13 12 9 6 7 11 15 17 13 12 3 8 9 10 14 10 14 11 11 11 17 15 17 17 16 15 16 16 16 16 17 18 19 20 22 23 23 23 23
19 20 19 17 15 11 7 5 10 18 20 21 15 9 5 4 11 9 10 13 10 14 12 16 15 16 17 17 16 18 20 21 22 22 19 19 21 22 23 24 25 26 26
22 22 21 17 14 11 6 9 17 22 19 17 14 13 13 13 6 9 7 10 16 13 15 15 17 19 18 17 19 20 23 25 26 26 27 23 23 24 25 26 27 27 28
24 23 20 18 16 13 12 17 15 15 21 16 15 14 14 13 13 11 15 11 11 11 12 17 19 20 20 21 22 24 25 27 30 32 35 35 28 28 28 29 30 31 32
26 22 22 20 17 16 16 12 24 25 12 17 15 13 12 8 8 9 13 14 14 13 13 15 16 17 22 24 26 28 29 32 36 37 37 35 33 29 29 30 30 31 32
29 26 24 23 20 17 13 19 18 11 13 12 14 13 12 11 12 11 13 15 14 14 12 13 13 17 20 22 26 28 33 36 37 35 33 33 33 32 29 27 28 29 29
29 29 25 22 19 13 16 7 15 10 11 14 14 12 12 11 13 14 13 13 16 16 15 14 14 18 19 23 28 31 36 35 33 33 33 33 32 30 25 26 27 27 27
30 29 26 22 19 15 12 16 9 8 18 17 13 12 11 11 12 14 15 15 14 18 19 17 15 16 20 25 29 32 33 33 33 32 32 32 31 29 27 27 27 27 28
32 31 27 23 18 14 11 11 8 19 15 13 12 11 10 10 12 12 13 13 15 16 23 18 18 18 23 25 29 30 31 32 32 31 31 31 30 30 28 28 29 30 30
34 31 27 23 17 17 18 10 11 15 13 12 12 11 10 11 12 12 12 14 17 17 21 22 20 19 28 27 24 28 29 30 30 31 31 31 31 31 29 28 27 27 28
33 30 25 20 17 14 11 6 7 11 13 12 12 14 14 13 14 14 15 16 19 19 22 24 21 20 20 22 26 28 27 28 28 29 28 26 24 20 19 22 24 26 26
29 30 25 23 20 18 14 8 16 10 14 13 14 15 15 18 17 15 17 20 21 22 24 23 23 20 20 20 21 22 23 25 25 26 24 22 17 19 21 22 25 25 25
29 27 27 21 17 17 12 12 24 13 19 20 19 20 20 21 20 18 18 21 22 23 22 21 21 20 18 18 21 20 21 21 22 22 19 17 18 19 18 18 20 22 24
26 24 23 23 21 18 12 20 21 19 22 25 25 25 24 24 22 21 20 21 22 24 20 19 20 18 18 19 19 19 20 21 21 18 17 17 20 18 16 18 20 22 22
23 24 22 21 17 12 30 30 25 20 24 25 25 25 26 25 25 23 23 22 24 24 23 19 18 18 19 19 17 17 19 20 23 18 21 24 19 19 18 19 22 23 21
25 23 21 20 26 34 30 29 19 23 26 28 28 27 27 27 26 26 26 24 25 25 24 21 20 18 19 18 17 17 18 20 23 23 22 23 19 19 18 20 23 20 19
24 23 30 29 32 28 29 26 20 27 29 29 29 28 29 28 27 27 26 26 25 24 24 22 22 22 22 20 18 16 19 21 23 21 18 23 17 19 20 19 15 16 16
21 20 23 25 27 27 17 22 25 28 28 29 27 26 26 26 26 26 28 27 26 25 23 22 22 22 21 19 18 16 18 21 23 22 17 13 16 22 20 17 14 20 17
18 23 24 20 18 22 23 24 24 26 28 29 28 28 27 27 26 27 29 27 28 26 23 22 22 22 20 19 17 17 17 19 20 20 9 16 18 17 18 12 21 21 18

GFSMA_850_spd_036.txt.gz
Wind_Speed
15 13 12 10 9 7 3 2 2 1 5 8 9 10 11 12 10 5 4 7 5 6 8 8 10 10 7 4 5 10 9 6 9 8 15 16 16 15 13 20 17 16 18
14 13 10 9 9 7 5 3 3 2 3 8 11 11 10 8 7 5 3 8 7 6 6 8 8 7 5 8 4 6 4 9 7 7 12 14 8 12 13 13 14 17 18
14 12 11 10 9 8 8 6 2 3 7 9 9 9 8 9 7 6 3 1 5 5 7 12 14 13 10 8 8 4 4 6 7 9 10 12 12 15 13 11 14 16 16
15 13 12 11 11 10 8 6 5 3 4 3 4 7 8 8 8 5 2 1 0 2 4 10 15 17 18 17 14 13 13 10 9 10 11 13 15 14 11 11 17 17 17
13 16 13 13 12 11 11 9 3 2 3 3 5 7 7 4 3 1 1 1 2 1 4 8 13 16 17 17 18 17 13 11 12 12 12 13 14 14 15 16 17 19 18
15 16 16 15 15 14 11 7 5 6 6 8 5 5 6 5 4 3 2 2 3 2 4 6 8 10 16 19 21 20 17 11 10 11 13 15 17 18 19 20 20 20 20
16 18 19 17 17 13 12 11 8 6 7 10 4 7 8 6 6 6 4 5 5 5 7 7 7 9 12 13 15 15 17 14 12 14 15 16 17 18 19 20 21 22 22
18 20 19 18 18 17 16 12 9 6 4 7 6 8 7 9 7 7 7 7 8 7 8 8 9 9 9 10 15 18 17 17 18 18 17 17 19 20 22 23 24 25 25
22 21 21 22 21 19 17 14 12 9 6 8 11 8 7 9 8 9 9 8 9 8 10 10 11 10 11 11 14 15 18 20 21 22 23 23 22 23 25 26 27 28 28
25 25 24 24 22 20 19 17 14 8 11 7 10 9 11 9 7 9 9 8 9 11 11 11 12 13 13 13 15 18 21 23 25 27 29 30 29 28 29 29 29 30 30
28 28 26 25 23 22 22 20 12 9 11 14 7 8 8 8 8 10 14 11 12 12 12 12 13 14 15 14 14 16 24 27 29 31 33 36 34 31 29 28 29 29 30
30 30 27 25 25 25 23 18 13 13 9 9 9 9 9 9 11 12 13 14 14 14 13 13 14 15 14 16 17 21 27 30 33 36 37 37 34 32 29 28 28 29 29
31 29 29 30 29 27 23 18 15 12 14 12 11 10 9 10 10 11 12 14 15 14 14 13 14 15 16 18 16 24 27 32 37 36 34 34 34 33 32 29 27 27 28
29 28 32 32 30 25 22 19 15 14 12 13 11 11 9 9 10 11 12 13 15 16 16 16 15 16 17 17 20 26 24 27 34 35 33 34 33 33 32 30 27 28 28
32 31 32 33 29 26 23 20 16 11 11 12 10 10 10 10 11 12 12 13 15 17 18 16 17 16 18 19 21 23 25 25 32 34 33 32 32 32 32 29 28 28 28
33 33 30 31 32 27 24 18 14 11 10 10 10 11 11 11 12 13 13 14 15 17 22 17 18 18 19 21 21 24 24 29 29 31 33 33 32 32 33 32 31 30 29
31 30 31 32 32 29 22 20 11 10 7 10 13 13 13 13 13 14 15 15 16 17 21 21 19 19 21 21 21 22 23 24 24 27 31 33 31 32 32 30 26 24 25
29 30 31 33 32 24 22 16 14 11 10 13 14 16 16 15 17 17 17 18 18 18 21 24 21 21 21 22 22 22 22 22 24 25 31 31 30 29 25 24 23 24 26
24 26 27 31 32 25 20 17 15 10 17 17 16 18 19 18 20 20 20 20 20 20 21 22 23 21 21 21 22 22 22 22 22 24 27 28 27 27 24 25 23 23 23
21 23 28 25 20 16 19 20 18 20 24 16 20 23 24 23 23 23 23 22 21 22 22 22 23 23 21 20 20 22 22 21 22 22 23 23 26 26 27 25 22 21 22
20 21 21 23 24 27 25 21 25 29 27 25 22 24 26 28 29 29 26 25 23 22 21 21 23 23 22 20 20 21 22 21 22 20 21 20 23 23 21 22 22 22 24
15 20 25 25 26 25 29 30 33 30 29 22 22 23 24 27 30 31 32 32 29 25 24 23 24 23 22 21 20 20 20 20 24 17 21 24 22 22 21 19 21 27 27
17 23 24 26 25 29 34 35 32 32 31 22 23 24 25 25 29 29 29 31 33 31 30 26 26 24 22 20 20 20 19 20 22 21 22 25 22 23 19 20 23 25 21
14 16 19 19 18 29 30 28 28 24 23 25 24 25 26 27 26 28 25 28 27 27 29 29 29 23 21 19 18 18 18 20 21 20 19 25 22 21 20 21 21 21 23
4 8 13 13 17 23 24 16 20 24 25 26 23 25 25 26 26 29 32 28 28 27 26 31 29 27 27 27 25 21 18 17 21 20 18 19 18 23 22 21 14 16 25
10 11 15 18 17 16 18 21 22 24 26 26 26 25 27 30 27 31 33 34 32 30 26 25 26 28 27 26 24 24 17 18 20 22 15 19 22 21 25 16 12 20 23

GFSMA_850_spd_039.txt.gz
Wind_Speed
12 11 12 10 10 10 9 7 3 4 2 3 4 5 5 6 4 2 7 11 5 8 7 8 9 7 5 4 7 9 8 7 7 9 15 15 11 11 14 17 19 19 19
14 13 13 12 9 9 7 6 5 4 3 1 5 4 4 3 3 2 0 10 9 4 7 8 9 7 6 6 6 5 3 6 5 7 8 10 11 12 16 13 13 17 17
18 12 11 11 11 10 11 12 9 6 2 0 2 4 2 4 3 3 1 1 10 8 6 11 11 9 7 5 9 6 5 5 6 7 8 9 13 14 16 12 15 17 16
16 15 12 11 12 10 9 8 8 5 4 3 2 1 2 4 6 3 1 2 2 6 9 10 14 17 18 18 16 15 15 8 7 9 10 9 10 11 12 14 16 17 18
15 14 11 12 14 10 10 10 8 7 5 3 3 2 4 4 6 3 3 2 3 3 5 10 11 16 18 19 19 20 20 17 15 11 10 12 14 16 17 18 19 20 21
17 15 12 15 13 11 10 10 9 7 6 5 4 7 6 6 5 5 4 4 5 5 4 7 8 11 12 17 20 24 23 15 11 9 11 13 14 15 16 17 19 20 21
16 17 14 16 14 12 12 14 11 8 6 7 7 9 10 11 10 7 8 7 8 7 7 9 9 8 14 13 16 15 16 16 19 15 12 13 14 16 17 19 21 23 24
17 17 16 15 15 14 17 14 12 8 6 9 6 9 10 8 10 10 10 10 10 10 10 11 10 11 10 9 15 17 19 21 17 17 19 19 19 19 21 23 24 26 27
19 18 18 17 16 18 16 16 15 12 7 9 9 6 7 9 9 11 13 11 11 11 10 11 13 12 11 11 14 16 20 16 19 21 21 24 24 23 25 26 27 29 29
23 22 23 19 21 17 16 17 16 13 13 7 8 9 10 10 8 10 10 13 13 11 12 11 12 13 13 14 14 17 25 26 24 25 27 28 30 31 28 28 27 28 28
27 27 24 22 23 21 22 19 17 17 16 13 9 10 11 10 11 11 15 12 11 11 11 12 13 12 14 14 15 20 23 25 26 30 31 34 35 34 31 27 27 27 28
25 28 27 27 29 27 24 23 23 20 15 14 10 11 14 13 12 14 17 16 16 16 16 15 13 13 14 14 15 21 26 31 32 34 34 33 33 32 31 29 28 28 29
26 29 32 30 29 27 26 22 24 21 19 16 12 10 12 14 13 13 14 16 17 16 16 16 15 14 13 14 16 22 27 31 33 34 36 35 33 34 33 32 29 28 28
31 29 28 26 28 27 24 28 22 23 20 16 13 14 13 14 13 13 13 14 17 17 17 18 16 16 17 17 19 25 29 28 27 35 37 35 34 31 30 31 30 28 28
30 26 27 27 27 29 31 27 27 23 19 17 13 12 11 12 14 14 14 14 15 18 18 17 17 17 18 18 19 20 21 25 30 36 33 34 33 32 31 32 32 31 29
28 28 29 30 30 31 31 29 24 22 16 9 11 10 12 13 15 16 14 15 16 18 23 18 19 20 19 21 23 28 24 27 29 29 32 33 35 37 35 34 34 31 28
22 27 30 31 32 31 29 27 25 15 11 12 11 13 15 17 17 17 17 18 18 18 22 23 21 21 21 22 23 24 23 25 26 25 28 33 36 37 34 32 31 28 25
22 22 28 29 29 24 22 28 21 13 17 15 11 24 16 19 20 21 21 20 22 21 23 27 25 24 23 23 24 25 25 23 24 25 27 32 33 32 32 29 26 25 24
23 24 27 23 24 27 26 22 20 23 18 15 27 18 18 22 24 23 24 24 24 24 24 26 27 25 24 24 25 24 24 24 25 23 26 27 29 29 31 29 28 25 23
20 22 21 22 28 24 23 20 23 27 21 26 25 19 22 25 26 26 27 28 28 28 28 28 28 27 26 25 23 24 26 23 24 23 24 25 25 25 27 28 28 26 23
13 16 20 25 22 21 24 28 28 23 24 29 27 27 23 26 27 30 32 32 30 31 31 31 27 27 27 26 23 23 25 26 25 23 23 23 22 23 23 24 24 24 17
13 15 18 21 21 23 22 27 27 19 28 34 33 29 24 25 26 30 33 34 40 42 38 34 30 29 29 27 24 24 24 24 27 19 21 25 21 23 23 23 22 24 27
9 9 11 13 13 16 24 24 20 28 33 34 32 26 21 24 27 29 31 35 37 37 41 46 41 36 31 28 25 24 24 24 26 23 22 26 22 24 23 21 23 25 28
4 5 8 11 14 12 13 18 23 27 27 21 21 23 26 28 28 29 32 35 35 36 37 38 46 46 33 28 25 23 22 22 24 22 19 26 22 24 21 23 25 24 24
5 4 4 9 8 11 14 18 17 17 21 23 22 23 25 28 30 31 34 36 38 40 37 38 36 34 35 34 31 26 25 20 26 22 18 21 22 23 25 27 23 21 19
8 5 5 7 8 9 10 15 18 19 22 22 23 24 26 29 31 32 33 36 38 40 37 34 37 38 38 38 37 36 31 25 23 24 16 18 20 20 27 22 13 24 27

GFSMA_850_spd_042.txt.gz
Wind_Speed
10 11 9 8 9 8 8 11 6 5 3 2 6 4 4 5 5 5 8 9 7 6 6 7 7 7 4 5 7 9 6 7 8 10 12 11 17 11 15 14 14 19 18
10 11 12 8 11 13 8 6 5 5 5 3 3 2 3 2 2 7 4 9 9 5 9 9 9 8 6 7 9 7 7 5 3 6 6 10 11 12 13 13 16 16 15
13 12 15 15 13 11 11 12 11 11 7 4 2 2 4 4 5 4 3 5 8 5 4 10 10 10 9 5 8 9 8 10 11 9 7 7 7 9 11 11 13 15 15
14 16 13 15 15 16 17 15 11 7 8 6 7 4 5 6 9 4 4 6 1 3 7 8 12 15 17 18 17 14 14 15 16 13 11 14 15 15 15 15 14 14 16
15 17 17 14 18 17 12 11 13 9 9 8 8 8 9 8 10 4 10 8 10 1 3 8 10 12 16 17 19 20 19 20 19 15 16 17 17 17 15 14 14 15 17
18 19 16 19 21 15 16 16 14 15 12 9 9 10 16 13 10 9 9 7 9 10 9 8 9 9 10 13 15 17 19 22 21 17 17 13 12 12 14 15 17 18 19
21 21 20 23 20 17 17 15 19 18 15 15 11 6 17 18 16 12 10 10 8 13 9 14 13 11 12 11 14 18 17 17 17 20 17 11 12 14 16 18 20 22 24
21 21 20 23 19 19 20 22 20 16 12 14 10 8 5 11 16 12 12 13 13 14 14 14 13 13 15 13 17 17 16 19 20 17 17 20 19 19 20 22 23 25 26
22 23 20 24 22 19 23 25 21 18 13 16 14 8 3 4 10 13 16 16 15 17 17 12 15 17 18 17 20 20 20 18 17 22 22 23 24 23 22 23 24 25 26
24 24 22 24 24 22 25 26 21 20 20 16 12 13 10 13 6 6 12 15 17 19 18 15 15 15 13 16 18 22 24 24 25 23 26 28 29 28 26 24 25 25 26
27 27 27 29 27 26 25 24 23 20 23 20 14 11 10 14 13 13 17 13 15 18 15 14 15 16 14 18 20 23 24 25 25 27 32 32 32 31 28 26 26 26 27
30 27 28 32 29 29 27 30 26 26 23 20 19 15 12 15 11 11 16 17 17 17 13 12 15 17 18 20 19 22 23 27 29 32 34 36 33 32 31 31 29 27 27
31 30 24 29 32 31 29 29 27 27 26 22 20 17 16 13 15 15 20 19 19 21 21 21 22 23 25 20 19 22 24 28 29 31 38 35 36 36 34 31 29 28 27
36 34 31 29 32 31 25 25 27 29 21 23 22 19 17 19 15 16 17 17 21 23 23 22 19 19 19 17 20 22 25 27 31 35 35 38 38 35 33 31 30 30 29
33 33 34 28 27 29 24 29 31 28 26 23 21 19 18 17 15 17 19 20 20 25 27 24 21 18 16 16 18 21 25 27 30 36 40 37 35 35 34 34 36 34 32
33 31 30 30 29 29 28 30 31 29 26 23 16 10 13 14 15 17 21 21 21 24 28 20 20 22 23 24 25 25 26 29 33 36 33 33 32 34 36 35 35 32 30
27 23 28 28 26 28 30 32 33 29 26 18 18 22 21 15 25 23 27 24 24 24 28 29 26 25 24 26 25 26 29 32 32 29 33 31 33 35 33 32 31 28 27
24 27 23 21 23 27 31 33 29 26 20 21 23 21 21 24 20 22 22 27 28 27 28 31 31 31 30 30 30 30 30 31 33 33 31 33 28 29 29 35 30 28 28
26 25 19 21 22 25 27 28 26 24 26 26 23 24 19 19 18 24 27 28 28 28 29 31 35 32 31 29 29 29 30 29 29 30 27 21 24 28 34 30 27 29 28
24 21 21 23 26 26 25 25 27 25 27 25 27 19 20 21 24 25 29 29 31 31 33 35 37 38 36 34 31 29 28 27 29 22 24 33 33 27 26 26 31 28 29
19 20 21 22 21 22 24 24 22 20 23 24 22 21 26 29 26 24 27 31 32 35 38 37 36 36 38 35 32 29 26 24 28 30 31 32 27 27 30 28 25 27 28
15 14 15 17 19 20 19 13 18 22 20 16 25 27 30 32 25 22 22 28 32 37 40 42 45 43 41 36 33 32 30 25 28 29 29 30 28 35 26 24 24 24 25
12 11 12 12 12 13 10 11 15 15 19 22 27 31 27 21 20 26 30 34 35 36 38 41 48 48 47 45 42 35 29 26 30 30 28 33 33 26 23 24 26 29 32
12 10 10 9 9 8 9 9 11 13 18 22 21 19 22 24 25 26 30 35 38 41 43 39 41 45 45 43 44 41 36 28 32 36 33 30 26 26 26 26 25 27 27
10 9 7 6 6 8 8 9 14 18 17 18 21 20 22 26 28 30 34 38 42 45 45 44 43 45 43 44 39 39 36 34 36 37 31 25 24 27 26 29 30 26 20
12 11 9 8 7 2 3 10 13 16 19 22 24 26 28 31 33 35 39 43 47 50 49 47 45 40 41 38 40 39 41 37 36 37 35 24 22 23 31 31 10 19 28